Al Hoceima, Morocco

9:46 PM WET on December 16, 2017 (GMT +0000)
Al Hoceima

Weather History for GMTA - March, 2013

Change the Weather History Date:

Friday, March 15, 2013

  Actual Average Record
Temperature  
Mean Temperature 54 °F -  
Max Temperature 64 °F 64 °F 75 °F (1997)
Min Temperature 43 °F 50 °F 43 °F (2013)
Degree Days  
Heating Degree Days 12    
Growing Degree Days 4 (Base 50)    
Moisture  
Dew Point 42 °F    
Average Humidity 54    
Maximum Humidity 72    
Minimum Humidity 36    
Precipitation  
Precipitation 0.00 in - - ()
Sea Level Pressure  
Sea Level Pressure 30.06 in    
Wind  
Wind Speed 5 mph ()    
Max Wind Speed 14 mph    
Max Gust Speed -    
Visibility 7.0 miles    
Events      
Averages and records for this station are not official NWS values.
T = Trace of Precipitation, MM = Missing Value Source: Averaged Metar Reports

Daily Weather History Graph

Daily Weather History Graph

Search for Another Location

Airport or City:

Trip Planner

Search our weather history database for the weather conditions in past years. The results will help you decide how hot, cold, wet, or windy it might be!

Date:

Astronomy

Mar. 15, 2013 Rise Set
Actual Time 6:26 AM WET 6:23 PM WET
Civil Twilight 6:00 AM WET 6:48 PM WET
Nautical Twilight 5:31 AM WET 7:17 PM WET
Astronomical Twilight 5:01 AM WET 7:47 PM WET
Moon 8:16 AM WET (3/15) 10:13 PM WET (3/15)
Length of Visible Light 12h 47m
Length of Day
11h 57m
Waxing Crescent, 14% of the Moon is Illuminated
Mar 15
Waxing Crescent
Mar 19
First Quarter
Mar 27
Full
Apr 3
Last Quarter
Apr 10
New

Hourly Weather History & Observations

Time (WET) Temp. Windchill Dew Point Humidity Pressure Visibility Wind Dir Wind Speed Gust Speed Precip Events Conditions
6:00 AM 44 °F - 35 °F 63% 30.08 in 6 mi South 4.6 mph - -   Scattered Clouds
6:00 AM 44.6 °F 42.2 °F 35.6 °F 71% 30.06 in - South 4.6 mph - N/A   Clear
7:00 AM 44.6 °F 42.2 °F 35.6 °F 71% 30.06 in - South 4.6 mph - N/A   Clear
8:00 AM 46.4 °F 44.3 °F 37.4 °F 71% 30.09 in - South 4.6 mph - N/A   Clear
9:00 AM 59 °F - 41 °F 40% 30.11 in 9 mi SE 2.3 mph - -   Scattered Clouds
9:00 AM 59.0 °F - 41.0 °F 51% 30.09 in - SE 2.3 mph - N/A   Clear
10:00 AM 60.8 °F - 35.6 °F 39% 30.09 in - East 2.3 mph - N/A   Clear
11:00 AM 60.8 °F - 42.8 °F 52% 30.09 in - East 9.2 mph - N/A   Clear
12:00 PM 62 °F - 42 °F 36% 30.09 in 9 mi WNW 13.8 mph - -   Clear
12:00 PM 62.6 °F - 42.8 °F 48% 30.06 in - NNE 11.5 mph - N/A   Clear
1:00 PM 62.6 °F - 46.4 °F 55% 30.06 in - North 9.2 mph - N/A   Clear
2:00 PM 62.6 °F - 42.8 °F 48% 30.04 in - NNE 11.5 mph - N/A   Clear
3:00 PM 63 °F - 45 °F 41% 30.04 in 6 mi NNW 9.2 mph - -  
3:00 PM 64.4 °F - 44.6 °F 49% 30.04 in - NNW 9.2 mph - N/A   Clear
4:00 PM 64.4 °F - 46.4 °F 52% 30.01 in - NNE 9.2 mph - N/A   Clear
5:00 PM 62.6 °F - 44.6 °F 52% 30.01 in - North 6.9 mph - N/A   Clear
6:00 PM 62 °F - 46 °F 45% 30.04 in 6 mi NW 2.3 mph - -   Clear
6:00 PM 62.6 °F - 46.4 °F 55% 30.04 in - NW 2.3 mph - N/A   Clear
7:00 PM 59.0 °F - 46.4 °F 63% 30.04 in - ESE 6.9 mph - N/A   Clear
8:00 PM - - - N/A% 30.04 in - South 2.3 mph - N/A   Unknown
9:00 PM 54 °F - 44 °F 61% 30.05 in 6 mi South 2.3 mph - -  
9:00 PM 53.6 °F - 44.6 °F 72% 30.04 in - South 2.3 mph - N/A   Clear